Flag for Germany Past Weather in Geislingen an der Steige, Baden-Württemberg, Germany — Yesterday and Last 2 Weeks

Now
61 °F

Partly sunny.


Feels Like: 61 °F
Forecast: 55 / 58 °F
Wind: 6 mph from East

Location: Laupheim Airport

Current Time: May 29, 2016 at 8:01:28 AM

Latest Report: May 29, 2016 at 7:20 AM


Visibility: N/A

Pressure: 29.74 "Hg

Humidity: 83%

Dew Point: 55 °F

Location of Geislingen an der SteigeLocation

Past Weather in Geislingen an der Steige — Graph

°F

Geislingen an der Steige Temperature Yesterday

Maximum temperature yesterday: 73 °F (at 7:20 PM)
Minimum temperature yesterday: 55 °F (at 3:20 AM)
Average temperature yesterday: 63 °F

High & Low Weather Summary for the Past Weeks

 TemperatureHumidityPressure
High81 °F (May 22, 2:20 PM)100% (May 20, 4:59 AM)30.18 "Hg (May 20, 4:59 AM)
Low41 °F (May 15, 4:20 AM)30% (May 22, 5:20 PM)29.68 "Hg (May 14, 6:20 AM)
Average54 °F75%29.98 "Hg
* Reported May 14 6:20 AM — May 29 6:20 AM, Geislingen an der Steige, Weather by CustomWeather, © 2016

Note: Actual official high and low records may vary slightly from our data, if they occured in-between our weather recording intervals... More about our weather records

Advertising

Geislingen an der Steige Weather History for the Previous 24 Hours

Scroll right to see more
 ConditionsComfort  
Time TempWeatherWind HumidityBarometerVisibility
6:20 AM
Sun, May 29
59 °FPassing clouds.1 mph82%29.77 "HgN/A
5:20 AM59 °FPassing clouds.5 mph82%29.77 "HgN/A
4:20 AM61 °FThunderstorms. Partly cloudy.8 mph94%29.77 "HgN/A
4:02 AM61 °FThunderstorms. Partly cloudy.5 mph88%29.77 "HgN/A
3:20 AM61 °FLight rain. Passing clouds.6 mph94%29.77 "HgN/A
2:20 AM61 °FLight rain. Passing clouds.7 mph94%29.80 "HgN/A
1:20 AM61 °FPassing clouds.2 mph88%29.80 "HgN/A
12:20 AM63 °FPassing clouds.3 mph83%29.80 "HgN/A
11:20 PM
Sat, May 28
63 °FPassing clouds.2 mph83%29.83 "HgN/A
10:20 PM64 °FPartly cloudy.2 mph78%29.83 "HgN/A
9:20 PM66 °FPassing clouds.5 mph73%29.83 "HgN/A
8:20 PM70 °FPassing clouds.7 mph64%29.83 "HgN/A
7:20 PM73 °FPassing clouds.2 mph47%29.83 "HgN/A
6:20 PM72 °FPassing clouds.3 mph57%29.86 "HgN/A
5:20 PM72 °FScattered clouds.6 mph57%29.89 "HgN/A
4:20 PM70 °FPartly sunny.6 mph60%29.89 "HgN/A
3:20 PM70 °FPartly sunny.5 mph64%29.92 "HgN/A
2:20 PM66 °FSprinkles. Broken clouds.6 mph78%29.92 "HgN/A
1:20 PM68 °FPartly sunny.6 mph73%29.95 "HgN/A
12:20 PM68 °FPartly sunny.6 mph73%29.95 "HgN/A
11:20 AM66 °FBroken clouds.3 mph78%29.95 "HgN/A
10:20 AM64 °FPartly sunny.7 mph78%29.95 "HgN/A
9:20 AM61 °FPartly sunny.1 mph88%29.98 "HgN/A
8:20 AM59 °FPartly sunny.2 mph94%29.98 "HgN/A
Weather by CustomWeather, © 2016

See weather overviewHow to use our weather pages